[[{"header":{"parameterUnit":"m.s-1","parameterCategory":1,"la1":30.2991,"la2":30.254,"lo1":-89.0895,"lo2":-89.0444,"dy":0.0017,"dx":0.0017,"nx":28,"ny":28,"refTime":"2024-10-19T03:00:00:Z","depth":0,"parameterNumber":2,"parameterNumberName":"U-component_of_WINDS"},"data":[0,0,0,0,0,0,0,0,0,0,0,0,0,0,0,0,0,0,0,0,0,0,0,0,0,0,0,0,0,0,0,0,0,0,0,0,0,0,0,0,0,0,0,0,0,0,0,0,0,0,0,0,0,0,0,0,0,0,-6.593,-6.5931,0,-6.6059,-6.606,-6.6062,-6.5955,-6.5951,-6.5946,-6.5942,-6.6076,-6.6083,-6.6091,0,0,0,0,0,0,0,0,0,0,0,0,0,-6.5593,-6.56,-6.593,-6.5931,-6.5933,-6.6059,-6.606,-6.6062,-6.5956,-6.595,-6.5945,-6.594,-6.6073,-6.6082,-6.6092,0,0,0,0,0,0,0,0,0,0,0,0,0,-6.5733,-6.5602,-6.5929,-6.5895,-6.5893,-6.6058,-6.606,-6.6063,-6.5957,-6.595,-6.5944,-6.5937,-6.607,-6.6082,-6.6093,-6.6299,0,0,-6.6128,-6.6134,0,0,0,0,0,0,0,0,-6.5725,-6.5745,-6.5899,-6.5898,-6.5896,-6.5984,-6.5991,-6.6142,-6.5959,-6.5933,-6.5942,-6.5934,-6.6051,-6.6064,-6.6103,-6.6305,-6.6311,-6.613,-6.6137,-6.6142,-6.6145,0,0,0,0,0,0,0,-6.5715,-6.5739,-6.5981,-6.5901,-6.5899,-6.5874,-6.5886,-6.6019,-6.6028,-6.5935,-6.5927,-6.5944,-6.6049,-6.6092,-6.6105,-6.6313,-6.6129,-6.614,-6.6147,-6.6151,-6.6693,-6.67,0,0,0,0,0,0,-6.5709,-6.5732,-6.5977,-6.5985,-6.5792,-6.5885,-6.5899,-6.5963,-6.6026,-6.603,-6.595,-6.5938,-6.6075,-6.6092,-6.6109,-6.6356,-6.6141,-6.6152,-6.6159,-6.6686,-6.6695,-6.6703,0,0,0,0,0,0,-6.5702,-6.5732,-6.5971,-6.5856,-6.5885,-6.5898,-6.597,-6.5969,-6.6011,-6.6037,-6.6039,-6.5992,-6.6071,-6.6093,-6.6253,-6.6359,-6.6158,-6.6168,-6.6677,-6.6689,-6.6699,-6.6851,0,0,0,0,0,0,-6.5693,-6.573,-6.5808,-6.5859,-6.5891,-6.6113,-6.5977,-6.5976,-6.6032,-6.6018,-6.6077,-6.6081,-6.6067,-6.6236,-6.6265,-6.6372,-6.6177,-6.6668,-6.6682,-6.6695,-6.6837,-6.6866,-6.6891,0,0,0,0,0,-6.5681,-6.5846,-6.5812,-6.5843,-6.5989,-6.6119,-6.6138,-6.6118,-6.604,-6.6119,-6.6136,-6.6079,-6.6343,-6.6254,-6.6285,-6.6397,-6.6661,-6.6678,-6.6694,-6.6824,-6.686,-6.6891,0,0,0,0,0,0,-6.5807,-6.5852,-6.5815,-6.6001,-6.6057,-6.6101,-6.62,-6.6157,-6.6237,-6.6221,-6.6194,-6.6208,-6.6377,-6.6402,-6.6302,-6.66,-6.6489,-6.6513,-6.6578,-6.6612,-6.6639,-6.663,-6.6187,0,0,0,0,0,-6.5857,-6.5958,-6.5991,-6.6152,-6.6182,-6.6187,-6.6242,-6.6223,-6.628,-6.6303,-6.6332,-6.639,-6.6486,-6.655,-6.664,-6.6839,-6.6852,-6.6932,-6.6959,-6.6981,-6.7003,-6.7112,-6.7148,-6.6758,-6.6758,-6.6758,0,0,-6.596,-6.5996,-6.6062,-6.6178,-6.6219,-6.6326,-6.6207,-6.6325,-6.6404,-6.6321,-6.6474,-6.6498,-6.6561,-6.6742,-6.6823,-6.6769,-6.7113,-6.7003,-6.702,-6.703,-6.7133,-6.717,-6.7202,-6.6769,-6.6767,-6.6765,0,0,-6.6202,-6.624,-6.6378,-6.6422,-6.6486,-6.6488,-6.6522,-6.6572,-6.6585,-6.6738,-6.6678,-6.6772,-6.6938,-6.6986,-6.7032,-6.7295,-6.7245,-6.7325,-6.7468,-6.7574,-6.7605,-6.7632,-6.7727,-6.7761,-6.7345,-6.7346,-6.7346,0,-6.6322,-6.648,-6.6455,-6.6578,-6.6631,-6.6561,-6.6702,-6.6745,-6.6836,-6.6875,-6.6812,-6.702,-6.7057,-6.7249,-6.7313,-6.7353,-6.7391,-6.7318,-6.7602,-6.7629,-6.7654,-6.7745,-6.778,-6.7355,-6.7354,-6.7353,-6.7352,0,-6.6626,-6.6736,-6.684,-6.693,-6.6994,-6.7126,-6.7121,-6.719,-6.7165,-6.7174,-6.7332,-6.7375,-6.7473,-6.7516,-6.7493,-6.7706,-6.767,-6.7606,-6.7494,-6.7701,-6.7786,-6.782,-6.7369,-6.7365,-6.7362,-6.736,0,0,-6.6952,-6.7025,-6.7064,-6.7105,-6.717,-6.7256,-6.7384,-6.7479,-6.754,-6.7604,-6.7712,-6.7855,-6.7796,-6.7848,-6.783,-6.7923,-6.813,-6.7847,-6.7848,-6.7899,-6.837,-6.8419,-6.8459,-6.8097,-6.8103,-6.8109,-6.8365,0,-6.7198,-6.7421,-6.7403,-6.7614,-6.7717,-6.7652,-6.7764,-6.7817,-6.7829,-6.7918,-6.7931,-6.8033,-6.7947,-6.7978,-6.8068,-6.8086,-6.8224,-6.8067,-6.8199,-6.8204,-6.8186,-6.8503,-6.8555,-6.8795,-6.8397,-6.8403,-6.8407,0,-6.7515,-6.7592,-6.7813,-6.7865,-6.7907,-6.8008,-6.8095,-6.818,-6.824,-6.8242,-6.8302,-6.8267,-6.8398,-6.8282,-6.8463,-6.8356,-6.8409,-6.8426,-6.8435,-6.8448,-6.8319,-6.8526,-6.8871,-6.8907,-6.8458,-6.8454,-6.8451,0,-6.7733,-6.7891,-6.8044,-6.808,-6.8143,-6.8216,-6.8246,-6.8299,-6.8358,-6.8434,-6.8472,-6.8562,-6.8612,-6.8684,-6.8675,-6.8592,-6.886,-6.8743,-6.8866,-6.8867,-6.8927,-6.8923,-6.9287,-6.8959,-6.8958,-6.8958,-6.8957,0,-6.8011,-6.8149,-6.8143,-6.8237,-6.8391,-6.8369,-6.8522,-6.8543,-6.8591,-6.8689,-6.8638,-6.8732,-6.8714,-6.8808,-6.8803,-6.8954,-6.8976,-6.8983,-6.898,-6.8989,-6.8988,-6.9024,-6.9007,-6.8967,-6.8965,-6.8963,-6.8961,0,-6.828,-6.8281,-6.8444,-6.8491,-6.8506,-6.8617,-6.8658,-6.8748,-6.8755,-6.8881,-6.8909,-6.8922,-6.903,-6.9028,-6.9151,-6.9147,-6.9333,-6.931,-6.9313,-6.9309,-6.9433,-6.9422,-6.9833,-6.9887,-6.9523,-6.9526,-6.9529,0,-6.8458,-6.8563,-6.8621,-6.8684,-6.8718,-6.8819,-6.8879,-6.8861,-6.8926,-6.9002,-6.9084,-6.9187,-6.9268,-6.9444,-6.9465,-6.9559,-6.9539,-6.9676,-6.9553,-6.9559,-6.9543,-6.9537,-6.9549,-6.9701,-6.9705,-6.9709,-6.9711,0,-6.8775,-6.877,-6.8858,-6.8948,-6.9021,-6.909,-6.9154,-6.9208,-6.9198,-6.9273,-6.9383,-6.9446,-6.9572,-6.9676,-6.9767,-6.9798,-6.9755,-6.975,-6.9784,-6.9794,-6.9792,-6.9796,-6.9381,-6.9741,-6.9738,-6.9736,-6.9734,-6.9733,-6.9005,-6.9096,-6.9151,-6.9252,-6.9298,-6.9359,-6.9446,-6.9465,-6.9556,-6.9657,-6.9641,-6.9764,-6.9822,-6.9939,-6.9979,-7.0075,-7.0027,-7.0076,-7.0088,-7.0101,-7.0116,-6.9776,-7.0092,-7.0091,-7.009,-7.0089,-7.0089,0,-6.932,-6.9352,-6.9445,-6.9536,-6.9616,-6.9566,-6.9635,-6.9705,-6.9814,-6.9871,-6.9952,-7.0079,-7.018,-7.0209,-7.0306,-7.0378,-7.0361,-7.0404,-7.04,-7.0408,-7.0152,-7.0114,-7.0417,-7.0417,-7.0417,-7.0417,-7.0417,-7.0417,-6.9493,-6.9645,-6.9647,-6.9822,-6.9853,-6.9973,-7.0017,-7.0074,-7.0119,-7.0263,-7.0346,-7.0364,-7.0411,-7.0511,-7.0602,-7.0608,-7.0647,-7.0699,-7.0698,-7.0459,-7.0426,-7.0394,-7.0358,-7.0708,-7.0708,-7.0945,-7.0947,-7.0949]},{"header":{"parameterUnit":"m.s-1","parameterCategory":1,"la1":30.2991,"la2":30.254,"lo1":-89.0895,"lo2":-89.0444,"dy":0.0017,"dx":0.0017,"nx":28,"ny":28,"refTime":"2024-10-19T03:00:00:Z","depth":0,"parameterNumber":3,"parameterNumberName":"V-component_of_WINDS"},"data":[0,0,0,0,0,0,0,0,0,0,0,0,0,0,0,0,0,0,0,0,0,0,0,0,0,0,0,0,0,0,0,0,0,0,0,0,0,0,0,0,0,0,0,0,0,0,0,0,0,0,0,0,0,0,0,0,0,0,-2.2675,-2.2674,0,-2.2616,-2.2615,-2.2615,-2.2535,-2.2533,-2.2532,-2.2531,-2.2472,-2.2472,-2.2472,0,0,0,0,0,0,0,0,0,0,0,0,0,-2.2719,-2.2719,-2.2675,-2.2674,-2.2674,-2.2616,-2.2615,-2.2615,-2.2535,-2.2533,-2.2532,-2.253,-2.2473,-2.2472,-2.2472,0,0,0,0,0,0,0,0,0,0,0,0,0,-2.2684,-2.2718,-2.2675,-2.2627,-2.2622,-2.2616,-2.2615,-2.2614,-2.2535,-2.2533,-2.2531,-2.2529,-2.2473,-2.2472,-2.2472,-2.251,0,0,-2.247,-2.247,0,0,0,0,0,0,0,0,-2.2686,-2.2683,-2.2635,-2.263,-2.2625,-2.2581,-2.2609,-2.2579,-2.2536,-2.2568,-2.2531,-2.2528,-2.251,-2.2507,-2.25,-2.2507,-2.2504,-2.247,-2.247,-2.247,-2.247,0,0,0,0,0,0,0,-2.2689,-2.2685,-2.2652,-2.2634,-2.2628,-2.2608,-2.2601,-2.2603,-2.2551,-2.2565,-2.2559,-2.2553,-2.2507,-2.2501,-2.2498,-2.2503,-2.247,-2.247,-2.247,-2.247,-2.2536,-2.2538,0,0,0,0,0,0,-2.2698,-2.2687,-2.2654,-2.265,-2.2651,-2.2609,-2.2601,-2.2597,-2.2551,-2.2542,-2.2555,-2.255,-2.2502,-2.2499,-2.2496,-2.2536,-2.247,-2.2469,-2.2469,-2.2534,-2.2537,-2.2539,0,0,0,0,0,0,-2.2699,-2.2696,-2.2656,-2.2667,-2.266,-2.261,-2.2606,-2.2597,-2.259,-2.2543,-2.2534,-2.2558,-2.2501,-2.2496,-2.2506,-2.2533,-2.2469,-2.2469,-2.2532,-2.2535,-2.2538,-2.2617,0,0,0,0,0,0,-2.2701,-2.2697,-2.2711,-2.2668,-2.266,-2.2668,-2.2608,-2.2597,-2.2589,-2.2582,-2.2544,-2.2535,-2.2499,-2.2507,-2.2506,-2.2531,-2.2469,-2.2529,-2.2533,-2.2537,-2.2612,-2.2623,-2.2632,0,0,0,0,0,-2.2703,-2.2736,-2.2712,-2.2708,-2.2676,-2.2669,-2.2665,-2.2621,-2.2592,-2.2605,-2.2575,-2.2537,-2.253,-2.2509,-2.2507,-2.2532,-2.2527,-2.2532,-2.2537,-2.2608,-2.262,-2.2631,0,0,0,0,0,0,-2.2785,-2.273,-2.2702,-2.2723,-2.2701,-2.2656,-2.2672,-2.2637,-2.2624,-2.2618,-2.2565,-2.2557,-2.2573,-2.2553,-2.2531,-2.2565,-2.2523,-2.2527,-2.2578,-2.2589,-2.2599,-2.2604,-2.2468,0,0,0,0,0,-2.2805,-2.2803,-2.2756,-2.2778,-2.2769,-2.2722,-2.2718,-2.2686,-2.2662,-2.2652,-2.2623,-2.2601,-2.2594,-2.2591,-2.2582,-2.2608,-2.2599,-2.2625,-2.2635,-2.2643,-2.2647,-2.2659,-2.267,-2.2554,-2.2554,-2.2554,0,0,-2.2847,-2.2817,-2.2819,-2.2794,-2.2773,-2.2773,-2.2715,-2.2718,-2.2717,-2.2653,-2.266,-2.2638,-2.261,-2.2628,-2.2635,-2.2612,-2.2677,-2.2649,-2.2656,-2.2655,-2.2665,-2.2676,-2.2685,-2.2557,-2.2557,-2.2556,0,0,-2.2924,-2.2901,-2.2916,-2.2897,-2.2866,-2.2835,-2.2838,-2.2798,-2.278,-2.2786,-2.2738,-2.2736,-2.2725,-2.2707,-2.2696,-2.2764,-2.2728,-2.2763,-2.2814,-2.2826,-2.2835,-2.2843,-2.2867,-2.2876,-2.2767,-2.2767,-2.2768,0,-2.298,-2.2977,-2.2929,-2.2934,-2.2924,-2.2865,-2.288,-2.2863,-2.2832,-2.2826,-2.2801,-2.2785,-2.2763,-2.2775,-2.2791,-2.2785,-2.2787,-2.2767,-2.2838,-2.2845,-2.2852,-2.2873,-2.2883,-2.2772,-2.2771,-2.2771,-2.277,0,-2.3048,-2.3047,-2.3063,-2.3033,-2.3024,-2.3035,-2.2988,-2.2985,-2.2954,-2.2925,-2.2931,-2.2901,-2.2885,-2.2885,-2.2855,-2.2893,-2.288,-2.2847,-2.2804,-2.2868,-2.2887,-2.2895,-2.2778,-2.2777,-2.2775,-2.2774,0,0,-2.3175,-2.3117,-2.3124,-2.3109,-2.307,-2.3068,-2.3075,-2.3058,-2.3056,-2.3036,-2.304,-2.3032,-2.3,-2.2988,-2.2955,-2.2966,-2.302,-2.2931,-2.293,-2.2949,-2.3059,-2.3084,-2.3095,-2.2996,-2.2997,-2.2998,-2.3061,0,-2.3244,-2.3253,-2.3209,-2.3229,-2.3227,-2.317,-2.3176,-2.3153,-2.3125,-2.312,-2.3089,-2.3084,-2.3043,-2.3035,-2.3043,-2.3012,-2.3042,-2.3007,-2.2999,-2.3,-2.3008,-2.3105,-2.3132,-2.3193,-2.3069,-2.307,-2.3071,0,-2.3326,-2.3309,-2.3329,-2.3287,-2.3285,-2.3291,-2.3271,-2.3266,-2.3238,-2.3217,-2.3203,-2.3165,-2.3168,-2.3127,-2.3131,-2.3108,-2.3102,-2.3086,-2.3087,-2.3085,-2.304,-2.3105,-2.3211,-2.3221,-2.3083,-2.3082,-2.3081,0,-2.3417,-2.3399,-2.3408,-2.3397,-2.3349,-2.3354,-2.3335,-2.3305,-2.3297,-2.3279,-2.3273,-2.3256,-2.3247,-2.3235,-2.3193,-2.3167,-2.3202,-2.3157,-2.3185,-2.3186,-2.3195,-2.3195,-2.3302,-2.3192,-2.3192,-2.3191,-2.3191,0,-2.3498,-2.3513,-2.3447,-2.3453,-2.3467,-2.3416,-2.3431,-2.3406,-2.338,-2.3379,-2.3329,-2.333,-2.3274,-2.3268,-2.3235,-2.3243,-2.3239,-2.3223,-2.3214,-2.3227,-2.3229,-2.3223,-2.3218,-2.3194,-2.3193,-2.3193,-2.3192,0,-2.3602,-2.3559,-2.3565,-2.3519,-2.3507,-2.352,-2.348,-2.3483,-2.3452,-2.3452,-2.3449,-2.34,-2.3391,-2.3347,-2.3328,-2.3306,-2.3325,-2.3307,-2.3334,-2.3328,-2.3359,-2.3356,-2.3465,-2.3476,-2.3359,-2.3361,-2.3361,0,-2.3657,-2.3666,-2.362,-2.3616,-2.3598,-2.3593,-2.3583,-2.3533,-2.3526,-2.3494,-2.3501,-2.3487,-2.3473,-2.3461,-2.3424,-2.3408,-2.339,-2.3429,-2.3388,-2.34,-2.339,-2.339,-2.339,-2.3438,-2.344,-2.3441,-2.3442,0,-2.3759,-2.3737,-2.3726,-2.3707,-2.3697,-2.368,-2.366,-2.3659,-2.3603,-2.3597,-2.3587,-2.3576,-2.3555,-2.3542,-2.352,-2.3499,-2.3462,-2.3455,-2.3461,-2.3475,-2.349,-2.3481,-2.3358,-2.3453,-2.3452,-2.3451,-2.3451,-2.345,-2.384,-2.3845,-2.3813,-2.3802,-2.3781,-2.3763,-2.3763,-2.3731,-2.3721,-2.37,-2.3671,-2.3664,-2.3634,-2.36,-2.3583,-2.3576,-2.3555,-2.3563,-2.3565,-2.3568,-2.3574,-2.3491,-2.3572,-2.3572,-2.3571,-2.3571,-2.3571,0,-2.3939,-2.3915,-2.3905,-2.3878,-2.3869,-2.3832,-2.3808,-2.3803,-2.3797,-2.3772,-2.3759,-2.3746,-2.3733,-2.3694,-2.3677,-2.3679,-2.3661,-2.3676,-2.3675,-2.3671,-2.3595,-2.3592,-2.3691,-2.3691,-2.369,-2.369,-2.369,-2.369,-2.3989,-2.3996,-2.397,-2.3965,-2.3941,-2.3933,-2.3922,-2.3905,-2.3884,-2.3872,-2.386,-2.3835,-2.3804,-2.3783,-2.3769,-2.3758,-2.3754,-2.3775,-2.3758,-2.3688,-2.3677,-2.3666,-2.3662,-2.3774,-2.3775,-2.3835,-2.3835,-2.3836]}]]